AEROCUBE 6B

Last updated on Thu Nov 21 2024 00:03:39 GMT+0000 (Coordinated Universal Time)

1 40046U 14033AN 24325.43158475 .00010835 00000+0 11432-2 0 9997 2 40046 97.6746 132.1108 0046027 121.2524 239.3214 14.88667221561053
UTC large
Height (km)
Speed (km/s)
/
Latitude / Longitude
Inclination (degrees)
Orbital Period (minutes)
Azimuth
Elevation
Range (km)
Doppler Factor

Next 0 passes for location: London (51.5072 / 0.1276)

Sorry there are no passes over London.